Time,TemperatureF,DewpointF,PressureIn,WindDirection,WindDirectionDegrees,WindSpeedMPH,WindSpeedGustMPH,Humidity,HourlyPrecipIn,Conditions,Clouds,dailyrainin,SoftwareType,DateUTC
2013-04-13 00:00:00,47.5,42.6,30.00,WSW,252,5.0,17.0,83,0.00,,,0.58,meteohub,2013-04-13 04:00:00,
2013-04-13 00:01:00,47.5,42.6,30.00,WNW,282,9.0,17.0,83,0.00,,,0.58,meteohub,2013-04-13 04:01:00,
2013-04-13 00:02:00,47.5,42.6,30.00,WNW,283,6.0,17.0,83,0.00,,,0.58,meteohub,2013-04-13 04:02:00,
2013-04-13 00:07:00,47.5,42.6,30.00,West,271,3.0,17.0,83,0.00,,,0.00,meteohub,2013-04-13 04:07:00,
2013-04-13 00:12:00,47.3,42.4,30.00,WSW,237,6.0,11.0,83,0.00,,,0.00,meteohub,2013-04-13 04:12:00,
2013-04-13 00:17:00,47.3,42.1,30.03,West,274,3.0,11.0,82,0.00,,,0.04,meteohub,2013-04-13 04:17:00,
2013-04-13 00:22:00,47.3,42.1,30.03,West,271,9.0,11.0,82,0.04,,,0.04,meteohub,2013-04-13 04:22:00,
2013-04-13 00:27:00,47.3,42.4,30.03,West,275,11.0,11.0,83,0.04,,,0.04,meteohub,2013-04-13 04:27:00,
2013-04-13 00:32:00,47.3,42.4,30.00,WNW,290,13.0,13.0,83,0.04,,,0.04,meteohub,2013-04-13 04:32:00,
2013-04-13 00:37:00,47.1,42.3,30.00,WSW,254,8.0,14.0,83,0.08,,,0.04,meteohub,2013-04-13 04:37:00,
2013-04-13 00:42:00,47.1,42.3,30.00,WNW,288,8.0,14.0,83,0.08,,,0.08,meteohub,2013-04-13 04:42:00,
2013-04-13 00:48:00,47.1,42.3,29.97,West,275,8.0,14.0,83,0.08,,,0.08,meteohub,2013-04-13 04:48:00,
2013-04-13 00:53:00,46.9,42.1,29.97,WNW,285,8.0,14.0,83,0.08,,,0.08,meteohub,2013-04-13 04:53:00,
2013-04-13 00:58:00,46.9,42.1,29.97,WNW,291,13.0,14.0,83,0.08,,,0.08,meteohub,2013-04-13 04:58:00,
2013-04-13 01:03:00,46.9,42.1,30.00,NW,314,10.0,15.0,83,0.08,,,0.08,meteohub,2013-04-13 05:03:00,
2013-04-13 01:08:00,46.9,42.1,30.00,WNW,301,9.0,15.0,83,0.08,,,0.08,meteohub,2013-04-13 05:08:00,
2013-04-13 01:14:00,46.8,41.9,30.00,WNW,295,8.0,15.0,83,0.08,,,0.08,meteohub,2013-04-13 05:14:00,
2013-04-13 01:19:00,46.8,41.9,30.00,West,278,10.0,15.0,83,0.04,,,0.08,meteohub,2013-04-13 05:19:00,
2013-04-13 01:24:00,46.6,41.7,30.00,WNW,300,13.0,17.0,83,0.04,,,0.08,meteohub,2013-04-13 05:24:00,
2013-04-13 01:29:00,46.6,41.7,30.00,NW,321,11.0,17.0,83,0.04,,,0.08,meteohub,2013-04-13 05:29:00,
2013-04-13 01:35:00,46.4,41.5,30.00,West,268,13.0,17.0,83,0.04,,,0.08,meteohub,2013-04-13 05:35:00,
2013-04-13 01:40:00,46.4,41.5,30.00,NW,308,13.0,16.0,83,0.00,,,0.08,meteohub,2013-04-13 05:40:00,
2013-04-13 01:45:00,46.2,41.4,30.00,West,278,11.0,20.0,83,0.00,,,0.08,meteohub,2013-04-13 05:45:00,
2013-04-13 01:50:00,46.0,41.2,30.00,West,274,9.0,20.0,83,0.00,,,0.08,meteohub,2013-04-13 05:50:00,
2013-04-13 01:56:00,46.0,41.2,30.00,NW,307,16.0,20.0,83,0.00,,,0.08,meteohub,2013-04-13 05:56:00,
2013-04-13 02:01:00,45.9,41.0,30.00,West,276,9.0,20.0,83,0.00,,,0.08,meteohub,2013-04-13 06:01:00,
2013-04-13 02:07:00,45.9,41.0,30.00,West,280,15.0,20.0,83,0.00,,,0.08,meteohub,2013-04-13 06:07:00,
2013-04-13 02:12:00,45.7,40.8,30.00,NW,308,9.0,20.0,83,0.00,,,0.08,meteohub,2013-04-13 06:12:00,
2013-04-13 02:17:00,45.7,40.8,30.00,WNW,285,13.0,20.0,83,0.00,,,0.08,meteohub,2013-04-13 06:17:00,
2013-04-13 02:22:00,45.7,40.8,30.00,WNW,293,13.0,20.0,83,0.00,,,0.08,meteohub,2013-04-13 06:22:00,
2013-04-13 02:32:00,45.5,40.6,30.00,NW,305,8.0,20.0,83,0.00,,,0.08,meteohub,2013-04-13 06:32:00,
2013-04-13 02:39:00,45.3,40.5,30.00,WNW,283,9.0,18.0,83,0.00,,,0.08,meteohub,2013-04-13 06:39:00,
2013-04-13 02:47:00,45.3,40.5,30.00,WNW,302,17.0,18.0,83,0.00,,,0.08,meteohub,2013-04-13 06:47:00,
2013-04-13 02:52:00,45.1,40.3,30.00,WSW,247,16.0,18.0,83,0.00,,,0.08,meteohub,2013-04-13 06:52:00,
2013-04-13 02:57:00,45.1,40.3,30.00,West,267,8.0,20.0,83,0.00,,,0.08,meteohub,2013-04-13 06:57:00,
2013-04-13 03:03:00,44.8,39.9,30.00,WSW,254,12.0,20.0,83,0.00,,,0.08,meteohub,2013-04-13 07:03:00,
2013-04-13 03:11:00,44.8,39.9,30.00,NW,308,8.0,24.0,83,0.00,,,0.08,meteohub,2013-04-13 07:11:00,
2013-04-13 03:19:00,44.6,39.7,30.00,NW,306,13.0,23.0,83,0.00,,,0.08,meteohub,2013-04-13 07:19:00,
2013-04-13 03:24:00,44.6,39.7,30.00,WNW,292,17.0,23.0,83,0.00,,,0.08,meteohub,2013-04-13 07:24:00,
2013-04-13 03:32:00,44.2,39.4,30.00,WNW,294,13.0,25.0,83,0.00,,,0.08,meteohub,2013-04-13 07:32:00,
2013-04-13 03:37:00,44.2,39.4,30.00,West,268,17.0,26.0,83,0.00,,,0.08,meteohub,2013-04-13 07:37:00,
2013-04-13 03:42:00,44.2,39.4,30.00,West,278,17.0,26.0,83,0.00,,,0.08,meteohub,2013-04-13 07:42:00,
2013-04-13 03:48:00,44.2,39.4,30.00,WNW,287,8.0,26.0,83,0.00,,,0.08,meteohub,2013-04-13 07:48:00,
2013-04-13 03:53:00,44.1,39.2,30.00,WNW,292,22.0,26.0,83,0.00,,,0.08,meteohub,2013-04-13 07:53:00,
2013-04-13 03:58:00,44.1,39.2,30.00,WSW,249,17.0,26.0,83,0.00,,,0.08,meteohub,2013-04-13 07:58:00,
2013-04-13 04:03:00,44.1,39.2,30.00,WNW,286,13.0,26.0,83,0.00,,,0.08,meteohub,2013-04-13 08:03:00,
2013-04-13 04:08:00,43.9,39.0,30.03,WNW,298,17.0,26.0,83,0.00,,,0.08,meteohub,2013-04-13 08:08:00,
2013-04-13 04:13:00,43.9,39.0,30.03,West,265,23.0,26.0,83,0.00,,,0.08,meteohub,2013-04-13 08:13:00,
2013-04-13 04:22:00,43.7,38.8,30.03,WNW,290,21.0,26.0,83,0.00,,,0.08,meteohub,2013-04-13 08:22:00,
2013-04-13 04:27:00,43.7,38.8,30.03,WNW,283,26.0,26.0,83,0.00,,,0.08,meteohub,2013-04-13 08:27:00,
2013-04-13 04:32:00,43.5,38.7,30.03,WNW,303,19.0,26.0,83,0.00,,,0.08,meteohub,2013-04-13 08:32:00,
2013-04-13 04:39:00,43.5,38.7,30.03,West,279,24.0,30.0,83,0.00,,,0.08,meteohub,2013-04-13 08:39:00,
2013-04-13 04:47:00,43.5,38.7,30.03,WSW,256,15.0,27.0,83,0.00,,,0.08,meteohub,2013-04-13 08:47:00,
2013-04-13 04:57:00,43.3,38.5,30.03,NW,320,17.0,26.0,83,0.00,,,0.08,meteohub,2013-04-13 08:57:00,
2013-04-13 05:02:00,43.2,38.3,30.00,NNW,345,24.0,26.0,83,0.00,,,0.08,meteohub,2013-04-13 09:02:00,
2013-04-13 05:10:00,43.3,38.5,30.00,NW,306,15.0,28.0,83,0.00,,,0.08,meteohub,2013-04-13 09:10:00,
2013-04-13 05:16:00,43.3,38.5,30.00,NW,306,17.0,28.0,83,0.00,,,0.08,meteohub,2013-04-13 09:16:00,
2013-04-13 05:22:00,43.3,38.5,30.00,NW,311,16.0,28.0,83,0.00,,,0.08,meteohub,2013-04-13 09:22:00,
2013-04-13 05:27:00,43.3,38.5,30.00,WNW,303,16.0,26.0,83,0.00,,,0.08,meteohub,2013-04-13 09:27:00,
2013-04-13 05:32:00,43.3,38.5,30.00,NW,310,12.0,26.0,83,0.00,,,0.08,meteohub,2013-04-13 09:32:00,
2013-04-13 05:37:00,43.3,38.5,30.00,NW,320,15.0,26.0,83,0.00,,,0.08,meteohub,2013-04-13 09:37:00,
2013-04-13 05:43:00,43.3,38.5,30.00,West,272,18.0,25.0,83,0.00,,,0.08,meteohub,2013-04-13 09:43:00,
2013-04-13 05:49:00,43.5,38.7,30.00,NW,318,18.0,24.0,83,0.00,,,0.08,meteohub,2013-04-13 09:49:00,
2013-04-13 05:55:00,43.5,38.7,30.00,WNW,289,11.0,24.0,83,0.00,,,0.08,meteohub,2013-04-13 09:55:00,
2013-04-13 06:02:00,43.7,38.8,30.00,West,271,8.0,24.0,83,0.00,,,0.08,meteohub,2013-04-13 10:02:00,
2013-04-13 06:07:00,43.7,38.8,30.06,WNW,290,14.0,24.0,83,0.00,,,0.08,meteohub,2013-04-13 10:07:00,
2013-04-13 06:12:00,43.5,38.5,30.06,NW,305,11.0,23.0,82,0.00,,,0.08,meteohub,2013-04-13 10:12:00,
2013-04-13 06:17:00,43.5,38.5,30.06,WNW,303,13.0,24.0,82,0.00,,,0.08,meteohub,2013-04-13 10:17:00,
2013-04-13 06:22:00,43.7,38.5,30.06,WNW,296,12.0,24.0,82,0.00,,,0.08,meteohub,2013-04-13 10:22:00,
2013-04-13 06:27:00,43.7,38.5,30.06,NW,317,8.0,22.0,82,0.00,,,0.08,meteohub,2013-04-13 10:27:00,
2013-04-13 06:32:00,43.7,38.5,30.09,WNW,295,15.0,22.0,82,0.00,,,0.08,meteohub,2013-04-13 10:32:00,
2013-04-13 06:37:00,43.7,38.3,30.09,West,281,12.0,22.0,81,0.00,,,0.08,meteohub,2013-04-13 10:37:00,
2013-04-13 06:42:00,43.9,38.5,30.09,West,276,5.0,17.0,81,0.00,,,0.08,meteohub,2013-04-13 10:42:00,
2013-04-13 06:47:00,43.9,38.5,30.06,NW,312,6.0,17.0,81,0.00,,,0.08,meteohub,2013-04-13 10:47:00,
2013-04-13 06:52:00,43.9,38.5,30.06,NW,317,9.0,17.0,81,0.00,,,0.08,meteohub,2013-04-13 10:52:00,
2013-04-13 06:59:00,43.7,37.2,30.06,West,276,13.0,17.0,78,0.00,,,0.08,meteohub,2013-04-13 10:59:00,
2013-04-13 07:04:00,44.1,37.6,30.06,NW,318,13.0,19.0,78,0.00,,,0.08,meteohub,2013-04-13 11:04:00,
2013-04-13 07:09:00,44.1,37.6,30.06,WNW,293,8.0,19.0,78,0.00,,,0.08,meteohub,2013-04-13 11:09:00,
2013-04-13 07:15:00,44.1,37.4,30.06,WNW,291,12.0,15.0,77,0.00,,,0.08,meteohub,2013-04-13 11:15:00,
2013-04-13 07:20:00,44.1,37.4,30.06,NW,305,11.0,15.0,77,0.00,,,0.08,meteohub,2013-04-13 11:20:00,
2013-04-13 07:25:00,44.2,37.6,30.06,WNW,288,13.0,15.0,77,0.00,,,0.08,meteohub,2013-04-13 11:25:00,
2013-04-13 07:32:00,44.1,36.3,30.09,WNW,292,13.0,15.0,74,0.00,,,0.08,meteohub,2013-04-13 11:32:00,
2013-04-13 07:37:00,43.9,35.4,30.09,West,275,16.0,24.0,72,0.00,,,0.08,meteohub,2013-04-13 11:37:00,
2013-04-13 07:44:00,43.9,34.7,30.09,WNW,298,9.0,24.0,70,0.00,,,0.08,meteohub,2013-04-13 11:44:00,
2013-04-13 07:49:00,44.1,34.9,30.09,West,277,8.0,24.0,70,0.00,,,0.08,meteohub,2013-04-13 11:49:00,
2013-04-13 07:54:00,44.2,34.7,30.09,WNW,290,10.0,18.0,69,0.00,,,0.08,meteohub,2013-04-13 11:54:00,
2013-04-13 08:00:00,44.1,33.8,30.09,West,264,13.0,18.0,67,0.00,,,0.08,meteohub,2013-04-13 12:00:00,
2013-04-13 08:07:00,44.2,33.6,30.09,West,281,8.0,22.0,66,0.00,,,0.08,meteohub,2013-04-13 12:07:00,
2013-04-13 08:12:00,44.2,32.9,30.09,WNW,292,11.0,22.0,64,0.00,,,0.08,meteohub,2013-04-13 12:12:00,
2013-04-13 08:17:00,44.2,32.4,30.09,WNW,286,11.0,22.0,63,0.00,,,0.08,meteohub,2013-04-13 12:17:00,
2013-04-13 08:25:00,44.4,32.2,30.09,West,267,10.0,22.0,62,0.00,,,0.08,meteohub,2013-04-13 12:25:00,
2013-04-13 08:30:00,44.2,31.3,30.09,West,278,11.0,19.0,60,0.00,,,0.08,meteohub,2013-04-13 12:30:00,
2013-04-13 08:37:00,44.1,29.8,30.09,West,278,14.0,17.0,57,0.00,,,0.08,meteohub,2013-04-13 12:37:00,
2013-04-13 08:42:00,44.4,30.6,30.09,SW,234,11.0,17.0,58,0.00,,,0.08,meteohub,2013-04-13 12:42:00,
2013-04-13 08:47:00,44.2,29.5,30.09,WNW,290,11.0,18.0,56,0.00,,,0.08,meteohub,2013-04-13 12:47:00,
2013-04-13 08:52:00,44.2,29.1,30.09,WNW,301,13.0,18.0,55,0.00,,,0.08,meteohub,2013-04-13 12:52:00,
2013-04-13 08:58:00,44.4,29.7,30.09,WNW,289,14.0,19.0,56,0.00,,,0.08,meteohub,2013-04-13 12:58:00,
2013-04-13 09:03:00,44.2,29.1,30.12,West,281,11.0,19.0,55,0.00,,,0.08,meteohub,2013-04-13 13:03:00,
2013-04-13 09:08:00,44.4,30.2,30.12,West,271,13.0,19.0,57,0.00,,,0.08,meteohub,2013-04-13 13:08:00,
2013-04-13 09:14:00,44.4,29.7,30.12,West,266,11.0,19.0,56,0.00,,,0.08,meteohub,2013-04-13 13:14:00,
2013-04-13 09:20:00,43.7,28.2,30.12,West,271,11.0,19.0,54,0.00,,,0.08,meteohub,2013-04-13 13:20:00,
2013-04-13 09:25:00,43.9,28.8,30.12,West,266,13.0,23.0,55,0.00,,,0.08,meteohub,2013-04-13 13:25:00,
2013-04-13 09:30:00,43.9,28.4,30.12,WNW,294,13.0,23.0,54,0.00,,,0.08,meteohub,2013-04-13 13:30:00,
2013-04-13 09:36:00,44.2,29.1,30.15,NW,312,12.0,21.0,55,0.00,,,0.08,meteohub,2013-04-13 13:36:00,
2013-04-13 09:42:00,44.1,28.4,30.15,WNW,285,13.0,21.0,54,0.00,,,0.08,meteohub,2013-04-13 13:42:00,
2013-04-13 09:50:00,44.1,28.4,30.15,West,276,12.0,21.0,54,0.00,,,0.08,meteohub,2013-04-13 13:50:00,
2013-04-13 09:55:00,45.0,29.3,30.15,WSW,251,12.0,17.0,54,0.00,,,0.08,meteohub,2013-04-13 13:55:00,
2013-04-13 10:00:00,44.8,27.3,30.15,WNW,301,11.0,17.0,50,0.00,,,0.08,meteohub,2013-04-13 14:00:00,
2013-04-13 10:07:00,43.7,25.7,30.15,West,269,22.0,22.0,49,0.00,,,0.08,meteohub,2013-04-13 14:07:00,
2013-04-13 10:12:00,44.2,26.2,30.15,West,267,15.0,21.0,49,0.00,,,0.08,meteohub,2013-04-13 14:12:00,
2013-04-13 10:22:00,45.1,27.1,30.15,West,280,10.0,23.0,49,0.00,,,0.08,meteohub,2013-04-13 14:22:00,
2013-04-13 10:27:00,45.0,26.4,30.15,NW,318,15.0,23.0,48,0.00,,,0.08,meteohub,2013-04-13 14:27:00,
2013-04-13 10:32:00,45.0,26.4,30.15,WSW,253,10.0,23.0,48,0.00,,,0.08,meteohub,2013-04-13 14:32:00,
2013-04-13 10:37:00,44.6,24.6,30.15,WNW,300,16.0,19.0,45,0.00,,,0.08,meteohub,2013-04-13 14:37:00,
2013-04-13 10:44:00,44.4,23.4,30.15,WNW,293,13.0,19.0,43,0.00,,,0.08,meteohub,2013-04-13 14:44:00,
2013-04-13 10:49:00,44.2,23.7,30.15,West,278,8.0,19.0,44,0.00,,,0.08,meteohub,2013-04-13 14:49:00,
2013-04-13 10:54:00,44.6,22.3,30.15,West,271,12.0,18.0,41,0.00,,,0.08,meteohub,2013-04-13 14:54:00,
2013-04-13 10:59:00,44.2,23.2,30.15,WSW,247,13.0,18.0,43,0.00,,,0.08,meteohub,2013-04-13 14:59:00,
2013-04-13 11:05:00,44.4,23.9,30.15,NW,307,15.0,18.0,44,0.00,,,0.08,meteohub,2013-04-13 15:05:00,
2013-04-13 11:11:00,45.0,23.7,30.15,West,280,11.0,18.0,43,0.00,,,0.08,meteohub,2013-04-13 15:11:00,
2013-04-13 11:17:00,44.8,23.0,30.18,WNW,291,11.0,16.0,42,0.00,,,0.08,meteohub,2013-04-13 15:17:00,
2013-04-13 11:22:00,44.4,22.8,30.18,WNW,283,11.0,16.0,42,0.00,,,0.08,meteohub,2013-04-13 15:22:00,
2013-04-13 11:29:00,44.6,23.0,30.18,West,270,8.0,16.0,42,0.00,,,0.08,meteohub,2013-04-13 15:29:00,
2013-04-13 11:34:00,44.4,23.4,30.18,West,274,8.0,17.0,43,0.00,,,0.08,meteohub,2013-04-13 15:34:00,
2013-04-13 11:40:00,44.4,22.8,30.18,WNW,282,9.0,17.0,42,0.00,,,0.08,meteohub,2013-04-13 15:40:00,
2013-04-13 11:45:00,44.6,23.0,30.18,NW,306,15.0,17.0,42,0.00,,,0.08,meteohub,2013-04-13 15:45:00,
2013-04-13 11:50:00,43.5,21.4,30.18,WSW,255,8.0,20.0,41,0.00,,,0.08,meteohub,2013-04-13 15:50:00,
2013-04-13 11:56:00,43.5,22.5,30.18,NW,315,9.0,20.0,43,0.00,,,0.08,meteohub,2013-04-13 15:56:00,
2013-04-13 12:02:00,44.1,23.0,30.18,WNW,288,13.0,19.0,43,0.00,,,0.08,meteohub,2013-04-13 16:02:00,
2013-04-13 12:07:00,44.6,23.0,30.18,West,259,6.0,19.0,42,0.00,,,0.08,meteohub,2013-04-13 16:07:00,
2013-04-13 12:15:00,44.6,22.3,30.18,WNW,286,15.0,17.0,41,0.00,,,0.08,meteohub,2013-04-13 16:15:00,
2013-04-13 12:21:00,44.6,21.7,30.18,WNW,302,15.0,17.0,40,0.00,,,0.08,meteohub,2013-04-13 16:21:00,
2013-04-13 12:27:00,45.1,21.7,30.18,WSW,257,4.0,17.0,39,0.00,,,0.08,meteohub,2013-04-13 16:27:00,
2013-04-13 12:34:00,43.5,19.6,30.18,WSW,243,8.0,17.0,38,0.00,,,0.08,meteohub,2013-04-13 16:34:00,
2013-04-13 12:40:00,45.0,21.6,30.18,West,280,6.0,16.0,39,0.00,,,0.08,meteohub,2013-04-13 16:40:00,
2013-04-13 12:47:00,44.8,20.7,30.18,West,270,8.0,15.0,38,0.00,,,0.08,meteohub,2013-04-13 16:47:00,
2013-04-13 12:52:00,43.7,18.5,30.18,SW,235,6.0,15.0,36,0.00,,,0.08,meteohub,2013-04-13 16:52:00,
2013-04-13 12:57:00,44.2,20.8,30.18,WNW,301,7.0,15.0,39,0.00,,,0.08,meteohub,2013-04-13 16:57:00,
2013-04-13 13:03:00,43.3,19.4,30.18,WSW,238,11.0,17.0,38,0.00,,,0.08,meteohub,2013-04-13 17:03:00,
2013-04-13 13:09:00,44.8,21.9,30.18,West,263,8.0,17.0,40,0.00,,,0.08,meteohub,2013-04-13 17:09:00,
2013-04-13 13:14:00,45.0,21.6,30.18,West,262,13.0,17.0,39,0.00,,,0.08,meteohub,2013-04-13 17:14:00,
2013-04-13 13:22:00,46.0,21.2,30.18,WNW,286,10.0,15.0,37,0.00,,,0.08,meteohub,2013-04-13 17:22:00,
2013-04-13 13:27:00,46.4,20.8,30.18,NW,310,8.0,15.0,36,0.00,,,0.08,meteohub,2013-04-13 17:27:00,
2013-04-13 13:32:00,46.0,19.2,30.18,West,280,12.0,15.0,34,0.00,,,0.08,meteohub,2013-04-13 17:32:00,
2013-04-13 13:38:00,45.9,18.3,30.18,West,278,15.0,15.0,33,0.00,,,0.08,meteohub,2013-04-13 17:38:00,
2013-04-13 13:43:00,46.0,19.9,30.18,WNW,285,9.0,17.0,35,0.00,,,0.08,meteohub,2013-04-13 17:43:00,
2013-04-13 13:48:00,46.0,20.5,30.18,WNW,284,11.0,17.0,36,0.00,,,0.08,meteohub,2013-04-13 17:48:00,
2013-04-13 13:54:00,46.6,20.3,30.18,WSW,257,13.0,15.0,35,0.00,,,0.08,meteohub,2013-04-13 17:54:00,
2013-04-13 13:59:00,46.8,19.9,30.18,West,269,10.0,15.0,34,0.00,,,0.08,meteohub,2013-04-13 17:59:00,
2013-04-13 14:04:00,46.8,17.8,30.18,WNW,284,11.0,15.0,31,0.00,,,0.08,meteohub,2013-04-13 18:04:00,
2013-04-13 14:10:00,46.8,16.9,30.18,West,280,11.0,15.0,30,0.00,,,0.08,meteohub,2013-04-13 18:10:00,
2013-04-13 14:16:00,46.6,16.9,30.18,West,265,11.0,15.0,30,0.00,,,0.08,meteohub,2013-04-13 18:16:00,
2013-04-13 14:22:00,48.2,18.1,30.18,NW,306,11.0,15.0,30,0.00,,,0.08,meteohub,2013-04-13 18:22:00,
2013-04-13 14:27:00,48.7,16.2,30.18,WNW,300,8.0,15.0,27,0.00,,,0.08,meteohub,2013-04-13 18:27:00,
2013-04-13 14:28:00,48.7,16.2,30.18,West,273,10.0,15.0,27,0.00,,,0.08,meteohub,2013-04-13 18:28:00,
2013-04-13 14:30:00,49.1,17.4,30.15,WNW,296,10.0,15.0,28,0.00,,,0.08,meteohub,2013-04-13 18:30:00,
2013-04-13 14:35:00,49.3,16.7,30.15,NW,311,10.0,15.0,27,0.00,,,0.08,meteohub,2013-04-13 18:35:00,
2013-04-13 14:40:00,49.6,17.1,30.15,WNW,285,11.0,15.0,27,0.00,,,0.08,meteohub,2013-04-13 18:40:00,
2013-04-13 14:46:00,50.4,16.7,30.15,West,267,8.0,13.0,26,0.00,,,0.08,meteohub,2013-04-13 18:46:00,
2013-04-13 14:51:00,50.5,12.0,30.15,WNW,302,9.0,12.0,21,0.00,,,0.08,meteohub,2013-04-13 18:51:00,
2013-04-13 14:57:00,50.9,10.0,30.15,WNW,284,10.0,12.0,19,0.00,,,0.08,meteohub,2013-04-13 18:57:00,
2013-04-13 15:02:00,50.9,10.0,30.15,West,268,8.0,12.0,19,0.00,,,0.08,meteohub,2013-04-13 19:02:00,
2013-04-13 15:07:00,51.4,10.6,30.15,NW,311,6.0,12.0,19,0.00,,,0.08,meteohub,2013-04-13 19:07:00,
2013-04-13 15:12:00,51.6,3.9,30.15,NW,306,4.0,11.0,14,0.00,,,0.08,meteohub,2013-04-13 19:12:00,
2013-04-13 15:18:00,52.0,9.7,30.12,NW,316,9.0,11.0,18,0.00,,,0.08,meteohub,2013-04-13 19:18:00,
2013-04-13 15:23:00,52.2,2.8,30.12,NW,304,9.0,11.0,13,0.00,,,0.08,meteohub,2013-04-13 19:23:00,
2013-04-13 15:28:00,52.0,7.2,30.12,WSW,238,6.0,11.0,16,0.00,,,0.08,meteohub,2013-04-13 19:28:00,
2013-04-13 15:33:00,52.5,3.0,30.12,NW,304,5.0,9.0,13,0.00,,,0.08,meteohub,2013-04-13 19:33:00,
2013-04-13 15:38:00,52.9,3.4,30.12,WNW,294,4.0,9.0,13,0.00,,,0.08,meteohub,2013-04-13 19:38:00,
2013-04-13 15:44:00,53.1,0.0,30.12,West,281,10.0,10.0,11,0.00,,,0.08,meteohub,2013-04-13 19:44:00,
2013-04-13 15:49:00,53.2,3.6,30.09,North,350,6.0,10.0,13,0.00,,,0.08,meteohub,2013-04-13 19:49:00,
2013-04-13 15:54:00,53.2,0.0,30.09,West,263,6.0,10.0,11,0.00,,,0.08,meteohub,2013-04-13 19:54:00,
2013-04-13 15:59:00,53.2,0.0,30.06,West,278,6.0,10.0,11,0.00,,,0.08,meteohub,2013-04-13 19:59:00,
2013-04-13 16:05:00,53.6,-1.7,30.06,West,265,5.0,10.0,10,0.00,,,0.08,meteohub,2013-04-13 20:05:00,
2013-04-13 16:10:00,51.8,-1.1,30.06,West,278,4.0,10.0,11,0.00,,,0.08,meteohub,2013-04-13 20:10:00,
2013-04-13 16:16:00,53.2,0.0,30.06,SW,217,4.0,11.0,11,0.00,,,0.08,meteohub,2013-04-13 20:16:00,
2013-04-13 16:21:00,54.0,-1.5,30.06,East,86,4.0,11.0,10,0.00,,,0.08,meteohub,2013-04-13 20:21:00,
2013-04-13 16:27:00,54.3,-1.1,30.06,NW,312,9.0,11.0,10,0.00,,,0.08,meteohub,2013-04-13 20:27:00,
2013-04-13 16:32:00,54.3,-1.1,30.06,West,277,7.0,10.0,10,0.00,,,0.08,meteohub,2013-04-13 20:32:00,
2013-04-13 16:37:00,54.1,-6.0,30.06,WSW,246,6.0,10.0,8,0.00,,,0.08,meteohub,2013-04-13 20:37:00,
2013-04-13 16:42:00,54.3,-5.8,30.06,West,261,4.0,10.0,8,0.00,,,0.08,meteohub,2013-04-13 20:42:00,
2013-04-13 16:47:00,53.8,-1.5,30.06,West,260,6.0,8.0,10,0.00,,,0.08,meteohub,2013-04-13 20:47:00,
2013-04-13 16:53:00,53.6,-6.3,30.06,NW,313,4.0,8.0,8,0.00,,,0.08,meteohub,2013-04-13 20:53:00,
2013-04-13 16:58:00,53.2,-6.7,30.06,WNW,282,9.0,9.0,8,0.00,,,0.08,meteohub,2013-04-13 20:58:00,
2013-04-13 17:03:00,52.2,-7.4,30.06,SW,234,6.0,9.0,8,0.00,,,0.08,meteohub,2013-04-13 21:03:00,
2013-04-13 17:09:00,52.2,-7.4,30.06,West,279,4.0,9.0,8,0.00,,,0.08,meteohub,2013-04-13 21:09:00,
2013-04-13 17:14:00,51.8,-7.8,30.06,West,280,6.0,9.0,8,0.00,,,0.08,meteohub,2013-04-13 21:14:00,
2013-04-13 17:19:00,51.3,-5.6,30.06,WSW,238,4.0,6.0,9,0.00,,,0.08,meteohub,2013-04-13 21:19:00,
2013-04-13 17:25:00,50.2,-2.4,30.06,SW,222,4.0,6.0,11,0.00,,,0.08,meteohub,2013-04-13 21:25:00,
2013-04-13 17:30:00,49.1,13.8,30.09,SE,141,13.0,13.0,24,0.00,,,0.08,meteohub,2013-04-13 21:30:00,
2013-04-13 17:35:00,48.2,17.4,30.09,SE,137,9.0,11.0,29,0.00,,,0.08,meteohub,2013-04-13 21:35:00,
2013-04-13 17:40:00,47.8,18.0,30.09,SSE,149,8.0,13.0,30,0.00,,,0.08,meteohub,2013-04-13 21:40:00,
2013-04-13 17:45:00,47.1,17.2,30.09,SE,124,8.0,13.0,30,0.00,,,0.08,meteohub,2013-04-13 21:45:00,
2013-04-13 17:51:00,46.8,17.8,30.09,ESE,119,8.0,12.0,31,0.00,,,0.08,meteohub,2013-04-13 21:51:00,
2013-04-13 17:57:00,46.4,20.3,30.09,ESE,112,7.0,12.0,35,0.00,,,0.08,meteohub,2013-04-13 21:57:00,
2013-04-13 18:02:00,46.2,21.4,30.09,SE,127,8.0,11.0,37,0.00,,,0.08,meteohub,2013-04-13 22:02:00,
2013-04-13 18:08:00,45.7,21.6,30.09,ESE,117,11.0,11.0,38,0.00,,,0.08,meteohub,2013-04-13 22:08:00,
2013-04-13 18:13:00,45.5,21.4,30.09,East,93,9.0,11.0,38,0.00,,,0.08,meteohub,2013-04-13 22:13:00,
2013-04-13 18:18:00,45.1,21.0,30.12,ESE,109,10.0,11.0,38,0.00,,,0.08,meteohub,2013-04-13 22:18:00,
2013-04-13 18:23:00,45.0,20.8,30.12,East,86,8.0,11.0,38,0.00,,,0.08,meteohub,2013-04-13 22:23:00,
2013-04-13 18:28:00,44.6,20.5,30.12,East,86,8.0,11.0,38,0.00,,,0.08,meteohub,2013-04-13 22:28:00,
2013-04-13 18:33:00,44.4,21.0,30.12,East,91,8.0,11.0,39,0.00,,,0.08,meteohub,2013-04-13 22:33:00,
2013-04-13 18:38:00,44.4,21.6,30.12,ENE,74,8.0,11.0,40,0.00,,,0.08,meteohub,2013-04-13 22:38:00,
2013-04-13 18:44:00,44.2,22.1,30.12,ENE,76,8.0,11.0,41,0.00,,,0.08,meteohub,2013-04-13 22:44:00,
2013-04-13 18:49:00,44.4,22.1,30.15,East,89,10.0,11.0,41,0.00,,,0.08,meteohub,2013-04-13 22:49:00,
2013-04-13 18:54:00,44.2,22.1,30.15,ESE,102,11.0,11.0,41,0.00,,,0.08,meteohub,2013-04-13 22:54:00,
2013-04-13 18:59:00,44.4,22.8,30.15,East,94,8.0,11.0,42,0.00,,,0.08,meteohub,2013-04-13 22:59:00,
2013-04-13 19:05:00,44.4,22.8,30.15,East,100,5.0,11.0,42,0.00,,,0.08,meteohub,2013-04-13 23:05:00,
2013-04-13 19:10:00,44.2,22.1,30.15,ESE,104,9.0,11.0,41,0.00,,,0.08,meteohub,2013-04-13 23:10:00,
2013-04-13 19:16:00,44.1,21.9,30.18,SE,131,6.0,10.0,41,0.00,,,0.08,meteohub,2013-04-13 23:16:00,
2013-04-13 19:21:00,44.1,21.9,30.18,ESE,119,5.0,10.0,41,0.00,,,0.08,meteohub,2013-04-13 23:21:00,
2013-04-13 19:26:00,44.2,22.6,30.18,ESE,118,6.0,10.0,42,0.00,,,0.08,meteohub,2013-04-13 23:26:00,
2013-04-13 19:31:00,44.2,22.6,30.18,SE,139,5.0,8.0,42,0.00,,,0.08,meteohub,2013-04-13 23:31:00,
2013-04-13 19:37:00,44.2,22.6,30.18,ESE,113,10.0,10.0,42,0.00,,,0.08,meteohub,2013-04-13 23:37:00,
2013-04-13 19:42:00,44.1,23.0,30.18,SE,129,6.0,10.0,43,0.00,,,0.08,meteohub,2013-04-13 23:42:00,
2013-04-13 19:47:00,44.1,23.0,30.18,SE,127,6.0,10.0,43,0.00,,,0.08,meteohub,2013-04-13 23:47:00,
2013-04-13 19:52:00,43.9,22.8,30.18,ESE,110,7.0,10.0,43,0.00,,,0.08,meteohub,2013-04-13 23:52:00,
2013-04-13 19:57:00,43.7,22.6,30.18,ESE,113,5.0,10.0,43,0.00,,,0.08,meteohub,2013-04-13 23:57:00,
2013-04-13 20:02:00,43.7,23.2,30.18,ESE,104,7.0,9.0,44,0.00,,,0.08,meteohub,2013-04-14 00:02:00,
2013-04-13 20:08:00,43.7,23.2,30.18,ESE,116,8.0,9.0,44,0.00,,,0.08,meteohub,2013-04-14 00:08:00,
2013-04-13 20:13:00,43.7,23.7,30.18,ESE,102,6.0,9.0,45,0.00,,,0.08,meteohub,2013-04-14 00:13:00,
2013-04-13 20:18:00,43.9,24.4,30.21,ESE,118,9.0,9.0,46,0.00,,,0.08,meteohub,2013-04-14 00:18:00,
2013-04-13 20:23:00,43.7,23.7,30.21,East,99,5.0,9.0,45,0.00,,,0.08,meteohub,2013-04-14 00:23:00,
2013-04-13 20:28:00,43.7,23.7,30.21,ESE,121,8.0,9.0,45,0.00,,,0.08,meteohub,2013-04-14 00:28:00,
2013-04-13 20:33:00,43.7,23.7,30.21,ESE,106,8.0,9.0,45,0.00,,,0.08,meteohub,2013-04-14 00:33:00,
2013-04-13 20:39:00,43.5,23.5,30.21,ESE,107,8.0,9.0,45,0.00,,,0.08,meteohub,2013-04-14 00:39:00,
2013-04-13 20:44:00,43.5,23.5,30.21,ESE,114,8.0,9.0,45,0.00,,,0.08,meteohub,2013-04-14 00:44:00,
2013-04-13 20:49:00,43.5,23.5,30.21,ESE,106,6.0,9.0,45,0.00,,,0.08,meteohub,2013-04-14 00:49:00,
2013-04-13 20:55:00,43.5,24.1,30.21,East,99,6.0,9.0,46,0.00,,,0.08,meteohub,2013-04-14 00:55:00,
2013-04-13 21:00:00,43.5,24.1,30.24,East,86,8.0,9.0,46,0.00,,,0.08,meteohub,2013-04-14 01:00:00,
2013-04-13 21:05:00,43.5,24.1,30.24,East,95,5.0,9.0,46,0.00,,,0.08,meteohub,2013-04-14 01:05:00,
2013-04-13 21:10:00,43.7,24.3,30.24,East,80,6.0,9.0,46,0.00,,,0.08,meteohub,2013-04-14 01:10:00,
2013-04-13 21:16:00,43.5,24.1,30.24,ESE,116,8.0,9.0,46,0.00,,,0.08,meteohub,2013-04-14 01:16:00,
2013-04-13 21:21:00,43.5,24.1,30.24,ESE,108,6.0,9.0,46,0.00,,,0.08,meteohub,2013-04-14 01:21:00,
2013-04-13 21:26:00,43.5,24.6,30.24,SE,139,8.0,9.0,47,0.00,,,0.08,meteohub,2013-04-14 01:26:00,
2013-04-13 21:31:00,43.7,25.3,30.27,ESE,102,6.0,9.0,48,0.00,,,0.08,meteohub,2013-04-14 01:31:00,
2013-04-13 21:37:00,43.7,25.3,30.27,East,83,8.0,11.0,48,0.00,,,0.08,meteohub,2013-04-14 01:37:00,
2013-04-13 21:42:00,43.7,25.3,30.27,ESE,121,8.0,12.0,48,0.00,,,0.08,meteohub,2013-04-14 01:42:00,
2013-04-13 21:47:00,43.7,25.3,30.27,SE,124,8.0,12.0,48,0.00,,,0.08,meteohub,2013-04-14 01:47:00,
2013-04-13 21:53:00,43.7,25.3,30.27,ESE,114,8.0,11.0,48,0.00,,,0.08,meteohub,2013-04-14 01:53:00,
2013-04-13 21:58:00,43.7,25.3,30.27,East,86,8.0,11.0,48,0.00,,,0.08,meteohub,2013-04-14 01:58:00,
2013-04-13 22:03:00,43.7,25.7,30.30,East,96,10.0,11.0,49,0.00,,,0.08,meteohub,2013-04-14 02:03:00,
2013-04-13 22:08:00,43.9,25.9,30.30,SE,125,11.0,11.0,49,0.00,,,0.08,meteohub,2013-04-14 02:08:00,
2013-04-13 22:14:00,43.9,25.9,30.30,ESE,115,12.0,12.0,49,0.00,,,0.08,meteohub,2013-04-14 02:14:00,
2013-04-13 22:19:00,44.1,26.6,30.30,ESE,108,8.0,13.0,50,0.00,,,0.08,meteohub,2013-04-14 02:19:00,
2013-04-13 22:24:00,44.2,27.3,30.30,East,90,10.0,13.0,51,0.00,,,0.08,meteohub,2013-04-14 02:24:00,
2013-04-13 22:29:00,44.4,27.5,30.30,ESE,108,8.0,13.0,51,0.00,,,0.08,meteohub,2013-04-14 02:29:00,
2013-04-13 22:34:00,44.4,27.9,30.30,SE,133,9.0,13.0,52,0.00,,,0.08,meteohub,2013-04-14 02:34:00,
2013-04-13 22:40:00,44.6,28.0,30.30,ESE,114,9.0,13.0,52,0.00,,,0.08,meteohub,2013-04-14 02:40:00,
2013-04-13 22:45:00,45.0,28.9,30.30,ESE,121,8.0,13.0,53,0.00,,,0.08,meteohub,2013-04-14 02:45:00,
2013-04-13 22:50:00,45.1,28.9,30.30,ESE,112,9.0,12.0,53,0.00,,,0.08,meteohub,2013-04-14 02:50:00,
2013-04-13 22:56:00,45.3,29.1,30.30,SE,130,6.0,11.0,53,0.00,,,0.08,meteohub,2013-04-14 02:56:00,
2013-04-13 23:01:00,45.3,29.1,30.30,ESE,120,11.0,11.0,53,0.00,,,0.08,meteohub,2013-04-14 03:01:00,
2013-04-13 23:06:00,45.3,29.1,30.30,ESE,113,10.0,11.0,53,0.00,,,0.08,meteohub,2013-04-14 03:06:00,
2013-04-13 23:11:00,45.5,29.3,30.30,ESE,103,11.0,12.0,53,0.00,,,0.08,meteohub,2013-04-14 03:11:00,
2013-04-13 23:17:00,45.7,30.0,30.32,SE,128,8.0,11.0,54,0.00,,,0.08,meteohub,2013-04-14 03:17:00,
2013-04-13 23:22:00,45.7,30.0,30.32,SE,126,9.0,11.0,54,0.00,,,0.08,meteohub,2013-04-14 03:22:00,
2013-04-13 23:27:00,45.9,30.2,30.32,ESE,122,8.0,11.0,54,0.00,,,0.08,meteohub,2013-04-14 03:27:00,
2013-04-13 23:32:00,45.9,30.2,30.30,ESE,123,8.0,11.0,54,0.00,,,0.08,meteohub,2013-04-14 03:32:00,
2013-04-13 23:37:00,46.0,30.4,30.30,ESE,116,6.0,11.0,54,0.00,,,0.08,meteohub,2013-04-14 03:37:00,
2013-04-13 23:42:00,46.2,30.9,30.30,SE,131,8.0,11.0,55,0.00,,,0.08,meteohub,2013-04-14 03:42:00,
2013-04-13 23:47:00,46.2,30.9,30.30,SSE,159,8.0,11.0,55,0.00,,,0.08,meteohub,2013-04-14 03:47:00,
2013-04-13 23:52:00,46.4,31.1,30.30,SE,138,9.0,12.0,55,0.00,,,0.08,meteohub,2013-04-14 03:52:00,
2013-04-13 23:57:00,46.4,31.1,30.30,SSE,154,6.0,12.0,55,0.00,,,0.08,meteohub,2013-04-14 03:57:00,